Location: Beuerbach
(48.1459°N, 10.9174°E)
Time: 19:06:50
(UTC+00:00)

COSMOS 2441 - Pass Details

Date: 23 May 2024
Orbit: 705 x 730 km, 98.2° (Epoch: 24 June)

Event Time Altitude Azimuth Distance (km) Brightness Sun altitude
Rises 01:28:35 0° 15° (NNE) 3,117 9.2 -14.8°
Reaches altitude 10° 01:30:52 10° 17° (NNE) 2,191 8.1 -14.6°
Maximum altitude 01:35:41 75° 103° (ESE) 736 4.4 -14.2°
Enters shadow 01:39:18 17° 187° (S) 1,725 5.8 -13.8°
